Location: Dackenheim
(49.5215°N, 8.1854°E)
Time: 12:31:10
(UTC+00:00)

BlueWalker 3 - Pass Details

Date: 23 January 2026
Orbit: 451 x 460 km, 53.2° (Epoch: 17 February)

Event Time Altitude Azimuth Distance (km) Brightness Sun altitude
Rises 19:23:13 0° 261° (W) 2,454 6.5 -31.3°
Reaches altitude 10° 19:25:23 10° 266° (W) 1,582 5.3 -31.7°
Enters shadow 19:25:57 14° 268° (W) 1,359 4.9 -31.8°
